Overview Statistics Trail Chart Weather Telemetry Raw packets
 

This is the latest recevied weather packets stored in our database for station/object KD4EG. If no packets are shown the sender has not sent any weather packets the latest 10 day(s).

<< 53 54 55 56 57 58 59 >>
Time Temp. Humidity Pressure Rain* Wind** Luminosity Snow
1788287341 33.89° C 51% 1021.2 hPa 0 mm - 665 W/m² -
1788287035 33.33° C 56% 1021.2 hPa 0 mm - 674 W/m² -
1788286730 33.33° C 53% 1021.1 hPa 0 mm - 661 W/m² -
1788286425 33.33° C 52% 1021.3 hPa 0 mm - 561 W/m² -
1788286124 32.78° C 54% 1021.3 hPa 0 mm - 631 W/m² -
1788285823 33.33° C 54% 1021.3 hPa 0 mm - 229 W/m² -
1788285522 32.78° C 54% 1021.6 hPa 0 mm - 620 W/m² -
1788285217 33.33° C 54% 1021.4 hPa 0 mm - 246 W/m² -
1788284912 33.89° C 53% 1021.4 hPa 0 mm - 275 W/m² -
1788284607 33.89° C 52% 1021.3 hPa 0 mm - 672 W/m² -
1788284303 32.78° C 53% 1021.5 hPa 0 mm - 665 W/m² -
1788283998 32.78° C 55% 1021.4 hPa 0 mm - 629 W/m² -
1788283695 32.78° C 55% 1021.3 hPa 0 mm - 681 W/m² -
1788283394 32.78° C 55% 1021.5 hPa 0 mm - 682 W/m² -
1788283092 33.33° C 53% 1021.5 hPa 0 mm - 625 W/m² -
1788282791 32.78° C 54% 1021.4 hPa 0 mm - 592 W/m² -
1788282491 32.78° C 55% 1021.6 hPa 0 mm - 633 W/m² -
1788282191 32.78° C 55% 1021.5 hPa 0 mm - 685 W/m² -
1788281889 33.33° C 56% 1021.6 hPa 0 mm - 692 W/m² -
1788281584 32.78° C 56% 1021.7 hPa 0 mm - 691 W/m² -
1788281281 32.78° C 56% 1021.7 hPa 0 mm - 694 W/m² -
1788280976 32.78° C 57% 1021.8 hPa 0 mm - 669 W/m² -
1788280671 32.22° C 59% 1021.8 hPa 0 mm - 583 W/m² -
1788280371 32.22° C 59% 1021.9 hPa 0 mm - 619 W/m² -
1788280066 31.67° C 59% 1021.9 hPa 0 mm - 629 W/m² -

* Rain latest hour (hover to see other rain measurements)
** Current wind speed in m/s (hover to see current wind gust speed)